{"data":{"norad_id":64565,"epoch":"2026-09-19T06:13:29.049600Z","epoch_age_seconds":121593,"freshness":"FRESH","line1":"1 64565U 25135AP  26262.25936400  .00001269  00000+0  12521-3 0  9990","line2":"2 64565  97.7769  15.1190 0002143  12.9035 347.2239 14.93743316 67914","mean_motion":14.93743316,"eccentricity":0.0002143,"inclination_deg":97.7769,"raan_deg":15.119,"arg_perigee_deg":12.9035,"mean_anomaly_deg":347.2239,"bstar":0.00012521,"rev_number":6791,"period_min":96.402105005302,"perigee_km":584.78364106672,"apogee_km":587.76858852772,"semimajor_km":6964.4131147972,"source":"CELESTRAK","updated_at":"2026-09-20T09:00:34.877576Z"}}